Dalhart, TX

12:12 PM CST on December 16, 2017 (GMT -0600)
Dalhart Municipal

Weather History for KDHT - January, 2013

Change the Weather History Date:

Thursday, January 3, 2013

  Actual Average Record
Temperature  
Mean Temperature 21 °F 34 °F  
Max Temperature 32 °F 49 °F 75 °F (1997)
Min Temperature 10 °F 19 °F -18 °F (1959)
Degree Days  
Heating Degree Days 44 31  
Month to date heating degree days 134 93  
Since 1 July heating degree days 1802 2036  
Cooling Degree Days 0 0  
Month to date cooling degree days 0 0  
Year to date cooling degree days 0 0  
Moisture  
Dew Point 10 °F    
Average Humidity 67    
Maximum Humidity 80    
Minimum Humidity 53    
Precipitation  
Precipitation 0.00 in 0.01 in 0.39 in (2015)
Month to date precipitation 0.00 0.04  
Year to date precipitation 0.00 0.04  
Snow  
Snow 0.00 in 0.20 in 4.00 in (2015)
Month to date snowfall 0.0 0.4  
Since 1 July snowfall 4.0 6.6  
Snow Depth 1.00 in    
Sea Level Pressure  
Sea Level Pressure 30.46 in    
Wind  
Wind Speed 7 mph (WNW)    
Max Wind Speed 13 mph    
Max Gust Speed 15 mph    
Visibility 10 miles    
Events      
T = Trace of Precipitation, MM = Missing Value Source: NWS Daily Summary

Daily Weather History Graph

Daily Weather History Graph

Search for Another Location

Airport or City:

Trip Planner

Search our weather history database for the weather conditions in past years. The results will help you decide how hot, cold, wet, or windy it might be!

Date:

Astronomy

Jan. 03, 2013 Rise Set
Actual Time 8:01 AM CST 5:48 PM CST
Civil Twilight 7:32 AM CST 6:17 PM CST
Nautical Twilight 7:00 AM CST 6:49 PM CST
Astronomical Twilight 6:29 AM CST 7:20 PM CST
Moon No Moon Rise 11:26 AM CST (1/3)
Length of Visible Light 10h 44m
Length of Day
9h 47m
Waning Gibbous, 65% of the Moon is Illuminated
Jan 3
Waning Gibbous
Jan 4
Last Quarter
Jan 11
New
Jan 18
First Quarter
Jan 26
Full

Hourly Weather History & Observations

Time (CST) Temp. Windchill Dew Point Humidity Pressure Visibility Wind Dir Wind Speed Gust Speed Precip Events Conditions
12:53 AM 12.0 °F -0.4 °F 5.0 °F 73% 30.42 in 10.0 mi NW 9.2 mph - N/A   Clear
1:53 AM 10.9 °F -1.8 °F 3.9 °F 73% 30.43 in 10.0 mi WNW 9.2 mph - N/A   Scattered Clouds
2:53 AM 10.9 °F -2.6 °F 3.9 °F 73% 30.44 in 10.0 mi NW 10.4 mph - N/A   Partly Cloudy
3:53 AM 10.9 °F -1.8 °F 3.0 °F 70% 30.45 in 10.0 mi WNW 9.2 mph - N/A   Partly Cloudy
4:53 AM 10.9 °F -1.8 °F 3.0 °F 70% 30.46 in 10.0 mi NW 9.2 mph - N/A   Mostly Cloudy
5:53 AM 14.0 °F 2.9 °F 6.1 °F 71% 30.47 in 10.0 mi NW 8.1 mph - N/A   Overcast
6:53 AM 15.1 °F 3.3 °F 6.1 °F 68% 30.48 in 10.0 mi NW 9.2 mph - N/A   Overcast
7:53 AM 17.1 °F 5.8 °F 7.0 °F 65% 30.50 in 10.0 mi NNW 9.2 mph - N/A   Clear
8:53 AM 17.1 °F 10.0 °F 7.0 °F 65% 30.53 in 10.0 mi NW 4.6 mph - N/A   Clear
9:53 AM 19.0 °F 10.0 °F 9.0 °F 65% 30.54 in 10.0 mi NW 6.9 mph - N/A   Clear
10:53 AM 23.0 °F 15.8 °F 12.0 °F 63% 30.54 in 10.0 mi NW 5.8 mph - N/A   Clear
11:53 AM 25.0 °F 19.3 °F 14.0 °F 63% 30.52 in 10.0 mi NW 4.6 mph - N/A   Clear
12:53 PM 28.0 °F 24.2 °F 15.1 °F 58% 30.49 in 10.0 mi West 3.5 mph - N/A   Clear
1:53 PM 30.9 °F 27.5 °F 15.1 °F 52% 30.46 in 10.0 mi SW 3.5 mph - N/A   Clear
2:53 PM 32.0 °F 26.4 °F 18.0 °F 56% 30.43 in 10.0 mi WNW 5.8 mph - N/A   Clear
3:53 PM 32.0 °F 25.6 °F 19.0 °F 59% 30.43 in 10.0 mi West 6.9 mph - N/A   Clear
4:53 PM 30.0 °F 22.4 °F 19.0 °F 64% 30.43 in 10.0 mi WSW 8.1 mph - N/A   Clear
5:53 PM 25.0 °F 16.3 °F 15.1 °F 66% 30.43 in 10.0 mi WSW 8.1 mph - N/A   Clear
6:53 PM 21.9 °F 12.5 °F 14.0 °F 72% 30.44 in 10.0 mi WSW 8.1 mph - N/A   Clear
7:53 PM 19.0 °F 12.3 °F 12.9 °F 77% 30.44 in 10.0 mi WSW 4.6 mph - N/A   Clear
8:53 PM 18.0 °F 9.8 °F 12.0 °F 78% 30.45 in 10.0 mi West 5.8 mph - N/A   Clear
9:53 PM 15.1 °F 5.2 °F 9.0 °F 77% 30.45 in 10.0 mi West 6.9 mph - N/A   Clear
10:53 PM 17.1 °F 5.8 °F 10.0 °F 74% 30.44 in 10.0 mi WSW 9.2 mph - N/A   Clear
11:53 PM 15.1 °F 1.1 °F 8.1 °F 74% 30.45 in 10.0 mi West 12.7 mph - N/A   Clear